Location: Caltech
(34.1382°N, 118.1253°W)
Time: 04:58:46
(UTC-07:00)

Iridium 75 - Visible Passes

Search period start: 19 April 2014 00:00
Search period end: 29 April 2014 00:00
Orbit: 776 x 779 km, 86.4° (Epoch: 18 April)

Date Brightness Start Highest point End Pass type
(mag) Time Alt. Az. Time Alt. Az. Time Alt. Az.
19 Apr 6.3 21:25:48 10° N 21:30:22 48° ENE 21:30:22 48° ENE visible
19 Apr 8.5 23:08:12 10° NW 23:10:51 15° WNW 23:10:51 15° WNW visible
20 Apr 7.1 20:52:53 10° NNE 20:57:11 26° E 20:57:20 26° E visible
20 Apr 7.6 22:33:23 10° NNW 22:37:48 29° W 22:37:50 29° W visible
21 Apr 7.8 20:20:57 10° NE 20:23:24 13° ENE 20:24:20 13° E visible
21 Apr 6.5 21:59:22 10° NNW 22:04:27 56° W 22:04:50 54° WSW visible
22 Apr 5.9 21:25:45 10° N 21:30:58 75° E 21:31:51 60° SSE visible
23 Apr 6.5 20:52:33 10° NNE 20:57:23 38° E 20:58:54 31° ESE visible
23 Apr 8.2 22:34:07 10° NW 22:37:45 19° W 22:39:24 17° WSW visible
24 Apr 7.4 20:19:54 10° NNE 20:23:40 20° E 20:25:58 15° ESE visible
24 Apr 7.3 21:59:42 10° NNW 22:04:27 37° W 22:06:29 27° SW visible
25 Apr 6.1 21:25:51 10° N 21:31:03 74° W 21:33:35 31° SSW visible
26 Apr 6.1 20:52:24 10° N 20:57:32 57° E 21:00:43 23° SSE visible
26 Apr 8.7 22:35:24 10° NW 22:37:38 13° W 22:39:53 10° WSW visible
27 Apr 6.9 20:19:22 10° NNE 20:23:54 29° E 20:27:53 12° SE visible
27 Apr 8.0 22:00:14 10° NNW 22:04:25 25° W 22:08:24 11° SW visible
28 Apr 6.9 21:26:05 10° NNW 21:31:05 48° W 21:35:36 13° SSW visible
